Stations météo

réclame
Mon MeteoGroup
Gemini, Pays-Bas (6214): Température de l'air & dewpoint: 17.01.2020 01:00:00 - 23.01.2020 01:00:00 (CET)Gemini, Pays-Bas (6214): Vitesse du vent & gusts: 17.01.2020 01:00:00 - 23.01.2020 01:00:00 (CET)Gemini, Pays-Bas (6214): Direction du vent: 17.01.2020 01:00:00 - 23.01.2020 01:00:00 (CET)Gemini, Pays-Bas (6214): reduced air pressure: 17.01.2020 01:00:00 - 23.01.2020 01:00:00 (CET)Gemini, Pays-Bas (6214): visibility: 17.01.2020 01:00:00 - 23.01.2020 01:00:00 (CET)
Date & Time tt [°C] td [°C] ff [km/h] ff [knt] fx [km/h] fx [knt] dd ppp [hPa] vv [km]
23.01.2020 01:00:00 6,2 5,7 8 4 - - WNW 1035,7 4,5
23.01.2020 00:00:00 7,0 4,6 5 3 7 4 NW 1035,7 10
22.01.2020 23:00:00 7,1 5,0 4 2 7 4 NNW 1036,1 10
22.01.2020 22:00:00 7,0 4,9 4 2 7 4 N 1036,0 10
22.01.2020 21:00:00 7,1 4,6 5 3 7 4 N 1036,0 10
22.01.2020 20:00:00 7,2 4,6 8 4 14 8 N 1035,9 10
22.01.2020 19:00:00 7,3 4,5 11 6 14 8 N 1035,7 10
22.01.2020 18:00:00 7,4 4,2 11 6 14 8 N 1035,5 10
22.01.2020 17:00:00 7,5 4,2 13 7 18 10 N 1035,1 10
22.01.2020 16:00:00 7,7 4,6 18 10 22 12 N 1035,0 10
22.01.2020 15:00:00 8,1 5,1 15 8 22 12 N 1035,1 10
22.01.2020 14:00:00 7,9 5,3 15 8 25 14 N 1035,5 10
22.01.2020 13:00:00 7,8 5,9 18 10 29 16 NNW 1035,3 10
22.01.2020 12:00:00 7,6 6,0 21 11 25 14 NW 1035,4 10
22.01.2020 11:00:00 7,7 6,0 16 9 18 10 NW 1035,2 10
22.01.2020 10:00:00 7,7 6,0 15 8 22 12 NNW 1035,0 10
22.01.2020 09:00:00 7,3 5,7 18 10 25 14 N 1035,0 10
22.01.2020 08:00:00 7,3 6,1 15 8 25 14 NNW 1034,5 10
22.01.2020 07:00:00 7,3 6,5 22 12 25 14 N 1034,4 5
22.01.2020 06:00:00 7,6 7,1 18 10 29 16 NNW 1034,1 7
22.01.2020 05:00:00 7,6 7,0 21 11 29 16 NNW 1033,9 8
22.01.2020 04:00:00 7,6 7,1 22 12 32 18 NNW 1034,1 -
22.01.2020 03:00:00 7,7 7,1 31 17 36 19 NW 1034,9 -
22.01.2020 02:00:00 7,7 7,1 24 13 32 18 WNW 1034,8 -
22.01.2020 01:00:00 7,7 6,8 26 14 29 16 WNW 1035,5 -
22.01.2020 00:00:00 7,6 6,4 24 13 25 14 W 1035,8 -
21.01.2020 23:00:00 7,6 5,8 22 12 29 16 W 1035,8 -
21.01.2020 22:00:00 7,7 5,2 22 12 25 14 W 1036,5 10
21.01.2020 21:00:00 7,5 4,7 22 12 25 14 W 1036,8 10
21.01.2020 20:00:00 7,4 4,3 18 10 25 14 W 1036,8 10
21.01.2020 19:00:00 7,3 4,0 22 12 29 16 NW 1037,0 10
21.01.2020 18:00:00 7,0 4,1 26 14 29 16 NW 1037,5 10
21.01.2020 17:00:00 6,8 3,7 26 14 29 16 WNW 1037,7 10
21.01.2020 16:00:00 7,0 4,0 26 14 29 16 WNW 1037,8 10
21.01.2020 15:00:00 6,7 3,5 22 12 29 16 W 1037,5 10
21.01.2020 14:00:00 6,5 3,0 28 15 32 18 WNW 1039,0 10
21.01.2020 13:00:00 6,7 3,2 28 15 32 18 W 1039,1 10
21.01.2020 12:00:00 6,7 3,4 29 16 32 18 W 1039,6 10
21.01.2020 11:00:00 6,9 3,5 34 18 36 19 WNW 1040,0 10
21.01.2020 10:00:00 6,8 3,0 37 20 36 19 W 1040,1 10
21.01.2020 09:00:00 6,9 3,5 37 20 40 21 W 1039,9 10
21.01.2020 08:00:00 6,8 3,7 34 18 40 21 W 1039,5 10
21.01.2020 07:00:00 6,7 3,4 34 18 43 23 W 1039,5 10
21.01.2020 06:00:00 6,9 3,9 35 19 40 21 W 1039,8 10
21.01.2020 05:00:00 6,8 4,0 28 15 40 21 W 1040,2 27
21.01.2020 04:00:00 6,8 4,1 34 18 36 19 W 1040,1 10
21.01.2020 03:00:00 6,9 3,8 28 15 36 19 W 1041,0 10
21.01.2020 02:00:00 6,9 4,0 35 19 43 23 W 1041,3 10
21.01.2020 01:00:00 6,9 3,8 29 16 40 21 W 1041,8 10
21.01.2020 00:00:00 7,1 3,8 31 17 40 21 W 1042,0 10
20.01.2020 23:00:00 7,0 4,1 34 18 36 19 W 1042,5 10
20.01.2020 22:00:00 6,8 4,0 29 16 40 21 W 1043,0 -
20.01.2020 21:00:00 6,6 4,0 28 15 36 19 W 1043,0 -
20.01.2020 20:00:00 6,9 4,1 31 17 36 19 W 1043,3 10
20.01.2020 19:00:00 7,1 4,2 31 17 32 18 W 1043,3 -
20.01.2020 18:00:00 7,3 4,5 28 15 32 18 W 1043,4 -
20.01.2020 17:00:00 7,3 4,7 21 11 29 16 W 1043,7 -
20.01.2020 16:00:00 7,4 4,9 22 12 29 16 W 1043,7 10
20.01.2020 15:00:00 7,6 5,1 22 12 29 16 W 1044,0 10
20.01.2020 14:00:00 7,7 5,1 21 11 25 14 W 1044,3 10
20.01.2020 13:00:00 7,8 5,3 21 11 25 14 W 1044,9 10
20.01.2020 12:00:00 8,0 5,4 24 13 25 14 W 1045,0 10
20.01.2020 11:00:00 7,7 4,9 21 11 22 12 W 1045,2 10
20.01.2020 10:00:00 7,8 4,9 22 12 25 14 W 1045,2 10
20.01.2020 09:00:00 7,9 3,3 18 10 22 12 W 1045,1 10
20.01.2020 08:00:00 7,8 4,2 18 10 22 12 W 1045,1 10
20.01.2020 07:00:00 7,5 5,1 21 11 25 14 W 1044,8 10
20.01.2020 06:00:00 7,5 4,8 21 11 25 14 WNW 1044,8 10
20.01.2020 05:00:00 7,5 4,8 18 10 25 14 WNW 1044,9 10
20.01.2020 04:00:00 7,5 4,5 26 14 25 14 WNW 1045,2 -
20.01.2020 03:00:00 7,5 4,1 21 11 22 12 WNW 1045,4 10
20.01.2020 02:00:00 7,5 4,0 16 9 22 12 NW 1045,5 10
20.01.2020 01:00:00 7,3 3,5 18 10 29 16 NW 1045,3 10
20.01.2020 00:00:00 7,4 3,5 13 7 25 14 NNW 1045,2 10
19.01.2020 23:00:00 7,5 3,8 18 10 25 14 NNW 1044,9 -
19.01.2020 22:00:00 7,5 3,9 22 12 29 16 NNW 1044,5 -
19.01.2020 21:00:00 7,5 4,4 18 10 25 14 N 1044,1 -
19.01.2020 20:00:00 7,6 4,4 22 12 29 16 N 1043,4 -
19.01.2020 19:00:00 7,6 4,5 24 13 29 16 N 1043,1 -
19.01.2020 18:00:00 7,8 4,8 26 14 36 19 N 1042,4 -
19.01.2020 17:00:00 7,9 4,6 34 18 40 21 N 1041,7 -
19.01.2020 16:00:00 8,1 3,9 39 21 40 21 N 1040,8 -
19.01.2020 15:00:00 8,2 3,8 37 20 40 21 N 1039,9 -
19.01.2020 14:00:00 8,2 3,6 41 22 47 25 N 1039,4 -
19.01.2020 13:00:00 8,3 3,5 35 19 43 23 N 1039,0 -
19.01.2020 12:00:00 8,2 2,2 41 22 43 23 N 1038,5 -
19.01.2020 11:00:00 8,2 1,9 31 17 47 25 N 1037,6 10
19.01.2020 10:00:00 7,9 1,1 46 25 50 27 N 1036,8 10
19.01.2020 09:00:00 7,9 0,7 52 28 50 27 NNE 1035,6 10
19.01.2020 08:00:00 7,5 2,7 42 23 47 25 N 1034,3 10
19.01.2020 07:00:00 7,1 1,9 37 20 54 29 N 1033,0 10
19.01.2020 06:00:00 7,3 2,3 44 24 47 25 N 1031,6 10
19.01.2020 05:00:00 6,7 2,8 41 22 61 33 NNE 1031,0 10
19.01.2020 04:00:00 6,9 2,4 42 23 47 25 N 1029,9 10
19.01.2020 03:00:00 5,9 2,5 34 18 61 33 N 1029,2 10
19.01.2020 02:00:00 6,8 2,0 41 22 43 23 NNW 1028,2 10
19.01.2020 01:00:00 6,5 2,5 35 19 43 23 N 1027,4 10
19.01.2020 00:00:00 6,7 2,4 34 18 47 25 NNW 1026,6 10
18.01.2020 23:00:00 6,8 2,3 37 20 43 23 NNW 1026,0 10
18.01.2020 22:00:00 6,9 2,2 34 18 40 21 NNW 1025,6 10
18.01.2020 21:00:00 6,0 1,7 44 24 54 29 NNW 1025,2 10
18.01.2020 20:00:00 6,0 1,2 37 20 54 29 NNW 1024,5 10
18.01.2020 19:00:00 7,2 1,7 39 21 47 25 NNW 1023,7 10
18.01.2020 18:00:00 7,3 2,1 41 22 43 23 NNW 1023,0 10
18.01.2020 17:00:00 7,4 2,1 34 18 47 25 NNW 1021,9 10
18.01.2020 16:00:00 7,4 2,0 26 14 43 23 NNW 1021,0 10
18.01.2020 15:00:00 7,5 2,1 26 14 40 21 NNW 1020,3 10
18.01.2020 14:00:00 6,9 1,7 24 13 40 21 NW 1019,9 10
18.01.2020 13:00:00 6,6 1,6 28 15 43 23 WNW 1019,4 10
18.01.2020 12:00:00 7,0 1,9 37 20 50 27 WNW 1019,2 10
18.01.2020 11:00:00 7,0 2,9 26 14 43 23 W 1018,8 10
18.01.2020 10:00:00 5,7 2,3 24 13 32 18 W 1017,8 10
18.01.2020 09:00:00 5,3 2,7 46 25 50 27 WNW 1017,0 10
18.01.2020 08:00:00 6,7 2,6 31 17 54 29 W 1016,4 10
18.01.2020 07:00:00 5,7 2,5 46 25 65 35 WNW 1015,4 10
18.01.2020 06:00:00 6,3 2,7 59 32 61 33 W 1016,0 10
18.01.2020 05:00:00 7,3 2,7 52 28 58 31 W 1015,3 10
18.01.2020 04:00:00 7,4 3,0 54 29 58 31 W 1015,5 10
18.01.2020 03:00:00 7,4 3,0 55 30 54 29 W 1015,0 10
18.01.2020 02:00:00 6,0 3,0 39 21 58 31 W 1013,8 10
18.01.2020 01:00:00 6,5 2,8 63 34 65 35 W 1013,6 10
18.01.2020 00:00:00 6,4 3,7 57 31 65 35 WNW 1012,5 7
17.01.2020 23:00:00 7,1 4,9 39 21 65 35 WSW 1011,3 10
17.01.2020 22:00:00 7,9 5,3 39 21 50 27 SW 1010,6 10
17.01.2020 21:00:00 8,5 6,5 44 24 50 27 SW 1010,5 10
17.01.2020 20:00:00 8,4 6,8 39 21 47 25 SW 1010,4 10
17.01.2020 19:00:00 8,5 7,4 39 21 43 23 SW 1010,3 10
17.01.2020 18:00:00 8,7 7,4 41 22 40 21 SW 1010,3 10
17.01.2020 17:00:00 8,3 7,8 34 18 40 21 SW 1010,1 9
17.01.2020 16:00:00 8,2 7,6 29 16 36 19 SSW 1010,1 8
17.01.2020 15:00:00 8,2 7,7 26 14 32 18 SW 1010,3 7
17.01.2020 14:00:00 7,9 7,4 28 15 36 19 SW 1010,6 6
17.01.2020 13:00:00 7,8 7,1 35 19 40 21 SW 1010,9 10
17.01.2020 12:00:00 7,7 7,0 35 19 47 25 SW 1011,2 10
17.01.2020 11:00:00 7,6 6,6 41 22 47 25 SW 1011,6 10
17.01.2020 10:00:00 8,5 5,5 35 19 43 23 SSW 1011,5 10
17.01.2020 09:00:00 8,2 5,6 37 20 47 25 S 1011,3 10
17.01.2020 08:00:00 8,5 5,5 42 23 47 25 S 1011,6 10
17.01.2020 07:00:00 8,6 5,6 35 19 40 21 S 1011,7 10
17.01.2020 06:00:00 8,6 5,7 41 22 47 25 S 1012,2 10
17.01.2020 05:00:00 8,9 5,6 42 23 47 25 SSW 1013,1 10
17.01.2020 04:00:00 9,1 5,7 52 28 58 31 SSW 1013,7 10
17.01.2020 03:00:00 9,2 5,8 55 30 61 33 SSW 1014,3 10
17.01.2020 02:00:00 9,3 5,8 57 31 65 35 S 1014,5 10
17.01.2020 01:00:00 9,2 5,9 54 29 54 29 S 1014,9 10

tt = Température de l'air
td = dewpoint
ff = Vitesse du vent
fx = gusts
dd = Direction du vent
ppp = reduced air pressure
vv = visibility

stations d'obs. à proximité